GW0655 Weather Reports


Display with metric or nautical units.
time (UTC)temp
F
wind
direction
speed
MPH
gust
MPH
rain 1hr
in
rain 24hr
in
rain mn
in
humidity
%
barometer
mb
20260506024014 78 219 1.0 2.0 0.00 0.00 0.00 85 1008.6
20260506023510 78 204 2.0 2.0 0.00 0.00 0.00 85 1008.3
20260506023008 78 171 0.0 1.0 0.00 0.00 0.00 84 1008.3
20260506022505 78 263 1.0 2.0 0.00 0.00 0.00 84 1008.3
20260506022003 78 207 1.0 1.0 0.00 0.00 0.00 83 1008.3
20260506021500 79 57 3.0 5.0 0.00 0.00 0.00 83 1008.0
20260506020957 79 128 4.0 6.0 0.00 0.00 0.00 83 1008.0
20260506020455 79 151 2.0 3.0 0.00 0.00 0.00 82 1007.6
20260506015951 79 193 1.0 3.0 0.00 0.00 0.00 81 1008.0
20260506015449 79 230 1.0 1.0 0.00 0.00 0.00 81 1008.0
20260506014946 79 222 1.0 2.0 0.00 0.00 0.00 81 1008.0
20260506014443 80 233 0.0 1.0 0.00 0.00 0.00 80 1008.0
20260506013939 80 234 0.0 1.0 0.00 0.00 0.00 79 1007.6
20260506013437 80 187 1.0 1.0 0.00 0.00 0.00 79 1007.6
20260506012933 80 244 0.0 1.0 0.00 0.00 0.00 79 1008.0
20260506012430 81 226 0.0 0.0 0.00 0.00 0.00 78 1008.0
20260506011927 81 222 0.0 1.0 0.00 0.00 0.00 77 1008.0
20260506011425 81 236 0.0 1.0 0.00 0.00 0.00 77 1008.0
20260506010921 81 228 1.0 1.0 0.00 0.00 0.00 76 1007.6
20260506010420 82 225 1.0 1.0 0.00 0.00 0.00 76 1007.6
20260506005916 82 195 0.0 1.0 0.00 0.00 0.00 75 1007.6
20260506005414 82 218 1.0 1.0 0.00 0.00 0.00 74 1007.6
20260506004909 82 240 0.0 1.0 0.00 0.00 0.00 74 1007.6
20260506004407 83 216 1.0 1.0 0.00 0.00 0.00 73 1007.6
20260506003903 83 246 1.0 1.0 0.00 0.00 0.00 73 1007.3
20260506003359 83 222 1.0 1.0 0.00 0.00 0.00 73 1007.3
20260506002856 83 212 0.0 1.0 0.00 0.00 0.00 73 1007.6
20260506002352 83 205 1.0 2.0 0.00 0.00 0.00 73 1007.6
20260506001848 83 222 1.0 1.0 0.00 0.00 0.00 73 1007.6
20260506001345 83 245 1.0 1.0 0.00 0.00 0.00 73 1007.3
20260506000842 83 228 0.0 1.0 0.00 0.00 0.00 72 1007.3
20260506000340 83 223 2.0 2.0 0.00 0.00 0.00 72 1007.6
20260505235836 83 240 0.0 1.0 0.00 0.00 0.00 72 1007.3
20260505235334 83 209 2.0 3.0 0.00 0.00 0.00 71 1007.6
20260505234830 83 198 3.0 6.0 0.00 0.00 0.00 72 1006.9
20260505234328 83 224 3.0 5.0 0.00 0.00 0.00 72 1007.3
20260505233825 83 230 2.0 2.0 0.00 0.00 0.00 72 1007.3
20260505233323 83 210 3.0 3.0 0.00 0.00 0.00 72 1007.3
20260505232820 84 200 1.0 2.0 0.00 0.00 0.00 71 1007.3
20260505232318 84 158 3.0 5.0 0.00 0.00 0.00 71 1007.3
20260505231814 84 207 1.0 2.0 0.00 0.00 0.00 71 1007.3
20260505231312 84 149 2.0 2.0 0.00 0.00 0.00 71 1007.3
20260505230810 84 143 5.0 7.0 0.00 0.00 0.00 70 1007.3
20260505230307 84 210 2.0 3.0 0.00 0.00 0.00 71 1007.3
20260505225803 84 239 2.0 3.0 0.00 0.00 0.00 71 1006.9
20260505225301 84 220 1.0 2.0 0.00 0.00 0.00 71 1006.9
20260505224755 84 175 3.0 5.0 0.00 0.00 0.00 70 1006.9
20260505224254 84 193 2.0 3.0 0.00 0.00 0.00 70 1006.9
20260505223751 84 199 3.0 5.0 0.00 0.00 0.00 69 1006.9
20260505223247 84 168 3.0 5.0 0.00 0.00 0.00 69 1006.9
20260505222743 85 200 3.0 5.0 0.00 0.00 0.00 69 1006.9
20260505222240 85 118 2.0 2.0 0.00 0.00 0.00 69 1006.9
20260505221737 84 96 3.0 5.0 0.00 0.00 0.00 69 1007.3
20260505221233 85 185 5.0 6.0 0.00 0.00 0.00 69 1007.3
20260505220730 84 238 3.0 5.0 0.00 0.00 0.00 69 1007.3
20260505220228 84 221 3.0 3.0 0.00 0.00 0.00 70 1007.3
20260505215726 84 206 1.0 2.0 0.00 0.00 0.00 70 1006.9
20260505215223 84 185 3.0 3.0 0.00 0.00 0.00 71 1007.3
20260505214721 85 160 3.0 6.0 0.00 0.00 0.00 70 1007.6
20260505214218 85 199 2.0 3.0 0.00 0.00 0.00 70 1007.6
20260505213715 84 229 3.0 6.0 0.00 0.00 0.00 70 1007.6
20260505213212 84 148 3.0 3.0 0.00 0.00 0.00 70 1007.6
20260505212708 85 182 7.0 8.0 0.00 0.00 0.00 69 1007.6
20260505212206 85 226 2.0 3.0 0.00 0.00 0.00 68 1007.6
20260505211702 85 209 3.0 5.0 0.00 0.00 0.00 69 1007.6
20260505211200 84 178 3.0 3.0 0.00 0.00 0.00 70 1008.0
20260505210656 84 193 3.0 5.0 0.00 0.00 0.00 71 1007.6
20260505210153 85 248 2.0 3.0 0.00 0.00 0.00 70 1008.0
20260505205651 84 225 5.0 7.0 0.00 0.00 0.00 69 1008.0
20260505205149 83 197 4.0 6.0 0.00 0.00 0.00 70 1008.0
20260505204645 83 187 4.0 5.0 0.00 0.00 0.00 72 1008.3
20260505204143 83 132 3.0 6.0 0.00 0.00 0.00 73 1008.3
20260505203640 84 205 4.0 6.0 0.00 0.00 0.00 70 1008.3
20260505203137 84 274 2.0 2.0 0.00 0.00 0.00 71 1008.6
20260505202632 84 167 3.0 5.0 0.00 0.00 0.00 71 1008.6
20260505202128 83 198 3.0 3.0 0.00 0.00 0.00 72 1009.0
20260505201625 83 176 3.0 3.0 0.00 0.00 0.00 72 1008.6
20260505201123 83 184 2.0 2.0 0.00 0.00 0.00 72 1008.6
20260505200621 83 180 3.0 3.0 0.00 0.00 0.00 72 1009.0
20260505200118 83 214 3.0 3.0 0.00 0.00 0.00 71 1009.0
20260505195614 82 201 4.0 5.0 0.00 0.00 0.00 72 1009.0
20260505195111 83 177 2.0 3.0 0.00 0.00 0.00 72 1009.0
20260505194608 82 219 4.0 5.0 0.00 0.00 0.00 73 1009.0
20260505194104 81 214 3.0 3.0 0.00 0.00 0.00 73 1009.0
20260505193601 81 165 5.0 7.0 0.00 0.00 0.00 75 1009.3
20260505193058 80 237 2.0 2.0 0.00 0.00 0.00 76 1009.3
20260505192557 81 174 6.0 8.0 0.00 0.00 0.00 75 1009.3
20260505192054 81 207 2.0 2.0 0.00 0.00 0.00 75 1009.3
20260505191552 81 240 5.0 7.0 0.00 0.00 0.00 75 1009.3
20260505191050 81 225 5.0 8.0 0.00 0.00 0.00 75 1009.3
20260505190544 80 186 4.0 5.0 0.00 0.00 0.00 77 1009.6
20260505190040 80 196 5.0 7.0 0.00 0.00 0.00 76 1009.3
20260505185537 80 115 3.0 6.0 0.00 0.00 0.00 76 1009.6
20260505185034 80 224 5.0 6.0 0.00 0.00 0.00 77 1009.6
20260505184531 80 211 1.0 2.0 0.00 0.00 0.00 77 1009.6
20260505184027 79 220 3.0 3.0 0.00 0.00 0.00 78 1009.6
20260505183524 79 287 3.0 5.0 0.00 0.00 0.00 78 1010.0
20260505183022 79 193 3.0 3.0 0.00 0.00 0.00 77 1009.6
20260505182517 79 213 4.0 7.0 0.00 0.00 0.00 78 1010.0
20260505182014 78 232 3.0 6.0 0.00 0.00 0.00 79 1010.0
20260505181511 78 218 7.0 9.0 0.00 0.00 0.00 79 1010.0
20260505181009 78 235 3.0 5.0 0.00 0.00 0.00 81 1010.0
20260505180504 78 310 1.0 1.0 0.00 0.00 0.00 80 1010.3
20260505180002 77 197 4.0 5.0 0.00 0.00 0.00 81 1010.0
20260505175457 77 210 5.0 7.0 0.00 0.00 0.00 82 1010.0
20260505174954 77 201 4.0 6.0 0.00 0.00 0.00 82 1010.3
20260505174451 77 230 3.0 5.0 0.00 0.00 0.00 81 1010.3
20260505173947 77 250 4.0 6.0 0.00 0.00 0.00 81 1010.3
20260505173443 76 229 5.0 6.0 0.00 0.00 0.00 82 1010.3
20260505172941 76 229 5.0 7.0 0.00 0.00 0.00 82 1010.3
20260505172439 76 218 4.0 6.0 0.00 0.00 0.00 83 1010.3
20260505171938 76 207 5.0 6.0 0.00 0.00 0.00 83 1010.3
20260505171435 76 222 4.0 5.0 0.00 0.00 0.00 83 1010.3
20260505170932 76 204 6.0 7.0 0.00 0.00 0.00 82 1010.7
20260505170429 76 224 3.0 6.0 0.00 0.00 0.00 83 1010.7
20260505165924 76 213 2.0 2.0 0.00 0.00 0.00 83 1010.7
20260505165420 76 205 4.0 5.0 0.00 0.00 0.00 83 1010.3
20260505164915 76 258 3.0 5.0 0.00 0.00 0.00 84 1010.7
20260505164413 75 254 4.0 5.0 0.00 0.00 0.00 84 1010.3
20260505163911 75 202 5.0 6.0 0.00 0.00 0.00 85 1010.3
20260505163410 74 211 4.0 5.0 0.00 0.00 0.00 86 1010.7
20260505162908 74 274 2.0 3.0 0.00 0.00 0.00 86 1010.3
20260505162403 74 217 5.0 7.0 0.00 0.00 0.00 87 1010.7
20260505161901 74 225 4.0 6.0 0.00 0.00 0.00 88 1010.7
20260505161357 73 249 1.0 3.0 0.00 0.00 0.00 88 1010.3
20260505160854 73 176 2.0 3.0 0.00 0.00 0.00 89 1010.7
20260505160353 73 208 3.0 3.0 0.00 0.00 0.00 89 1010.3
20260505153331 73 250 6.0 7.0 0.00 0.00 0.00 89 1010.7
20260505152828 73 255 2.0 3.0 0.00 0.00 0.00 90 1010.7
20260505152325 73 205 3.0 5.0 0.00 0.00 0.00 90 1010.7
20260505151820 73 215 3.0 3.0 0.00 0.00 0.00 90 1010.3
20260505151317 72 273 3.0 5.0 0.00 0.00 0.00 90 1010.3
20260505150814 72 69 3.0 5.0 0.00 0.00 0.00 91 1010.3
20260505150311 72 226 2.0 3.0 0.00 0.00 0.00 91 1010.3
20260505140235 72 281 4.0 5.0 0.00 0.00 0.00 91 1010.0
20260505130159 71 217 2.0 3.0 0.00 0.00 0.00 91 1009.6
20260505124649 71 154 5.0 7.0 0.00 0.00 0.00 91 1009.6
20260505124145 71 178 4.0 5.0 0.00 0.00 0.00 91 1009.3
20260505123641 71 199 1.0 2.0 0.00 0.00 0.00 91 1009.3
20260505123138 71 229 3.0 5.0 0.00 0.00 0.00 91 1009.3
20260505122635 71 238 3.0 3.0 0.00 0.00 0.00 91 1009.3
20260505122132 71 196 3.0 6.0 0.00 0.00 0.00 90 1009.0
20260505121629 71 167 3.0 5.0 0.00 0.00 0.00 90 1009.3
20260505121125 71 197 4.0 5.0 0.00 0.00 0.00 91 1009.3
20260505120621 71 227 3.0 5.0 0.00 0.00 0.00 91 1009.0
20260505120117 71 232 2.0 2.0 0.00 0.00 0.00 90 1008.6
20260505115612 71 201 5.0 6.0 0.00 0.00 0.00 90 1009.0
20260505115110 71 208 3.0 5.0 0.00 0.00 0.00 90 1009.0
20260505114606 71 184 7.0 9.0 0.00 0.00 0.00 90 1009.0
20260505114103 71 158 3.0 3.0 0.00 0.00 0.00 89 1008.6
20260505113559 71 234 7.0 9.0 0.00 0.00 0.00 89 1009.0
20260505113056 71 200 3.0 5.0 0.00 0.00 0.00 89 1009.0
20260505112552 71 129 5.0 7.0 0.00 0.00 0.00 88 1009.0
20260505112050 71 221 5.0 8.0 0.00 0.00 0.00 88 1009.0
20260505111544 71 173 4.0 5.0 0.00 0.00 0.00 88 1009.0
20260505111040 71 178 5.0 7.0 0.00 0.00 0.00 88 1009.3
20260505110537 71 201 2.0 3.0 0.00 0.00 0.00 88 1009.3
20260505102009 70 176 4.0 6.0 0.00 0.00 0.00 89 1009.0
20260505101508 70 215 0.0 0.0 0.00 0.00 0.00 89 1009.3
20260505101004 70 127 2.0 2.0 0.00 0.00 0.00 89 1009.3
20260505100501 70 217 4.0 5.0 0.00 0.00 0.00 89 1009.3
20260505095957 70 259 4.0 6.0 0.00 0.00 0.00 88 1009.0
20260505095454 70 226 5.0 7.0 0.00 0.00 0.00 88 1009.0
20260505094950 70 214 5.0 7.0 0.00 0.00 0.00 88 1009.0
20260505094447 70 144 4.0 5.0 0.00 0.00 0.00 88 1009.0
20260505093943 70 252 4.0 6.0 0.00 0.00 0.00 88 1009.3
20260505093440 70 223 4.0 7.0 0.00 0.00 0.00 88 1009.3
20260505092937 70 193 5.0 8.0 0.00 0.00 0.00 88 1009.0
20260505092435 70 164 4.0 6.0 0.00 0.00 0.00 88 1009.0
20260505091932 70 232 5.0 7.0 0.00 0.00 0.00 88 1009.3
20260505091430 71 184 4.0 6.0 0.00 0.00 0.00 88 1009.3
20260505090928 70 207 6.0 7.0 0.00 0.00 0.00 88 1009.3
20260505090426 70 261 0.0 1.0 0.00 0.00 0.00 88 1009.3
20260505085922 70 208 4.0 5.0 0.00 0.00 0.00 88 1009.6
20260505085420 70 201 4.0 7.0 0.00 0.00 0.00 88 1009.0
20260505084918 70 216 3.0 5.0 0.00 0.00 0.00 88 1009.0
20260505084416 70 209 5.0 7.0 0.00 0.00 0.00 88 1009.3
20260505083914 71 208 4.0 7.0 0.00 0.00 0.00 88 1009.3
20260505083411 71 145 4.0 6.0 0.00 0.00 0.00 88 1009.6
20260505082907 71 146 4.0 6.0 0.00 0.00 0.00 88 1010.0
20260505082403 71 153 4.0 6.0 0.00 0.00 0.00 88 1010.0
20260505081900 71 214 5.0 6.0 0.00 0.00 0.00 88 1009.6
20260505081357 71 187 4.0 6.0 0.00 0.00 0.00 88 1009.6
20260505080854 71 193 4.0 7.0 0.00 0.00 0.00 88 1010.0
20260505080350 71 208 8.0 10.0 0.00 0.00 0.00 88 1010.0
20260505075845 71 240 3.0 5.0 0.00 0.00 0.00 88 1009.6
20260505075342 71 222 7.0 11.0 0.00 0.00 0.00 87 1010.0
20260505074840 71 232 6.0 9.0 0.00 0.00 0.00 87 1010.0
20260505074337 71 211 5.0 8.0 0.00 0.00 0.00 87 1010.3
20260505073834 71 196 2.0 2.0 0.00 0.00 0.00 87 1010.0
20260505073332 71 210 3.0 5.0 0.00 0.00 0.00 87 1010.0
20260505072829 71 191 6.0 7.0 0.00 0.00 0.00 87 1010.0
20260505072325 71 148 3.0 5.0 0.00 0.00 0.00 87 1010.3
20260505071821 71 163 6.0 9.0 0.00 0.00 0.00 87 1010.3
20260505071317 71 144 9.0 13.0 0.00 0.00 0.00 87 1010.3
20260505070816 71 218 7.0 8.0 0.00 0.00 0.00 87 1010.7
20260505070312 71 208 2.0 3.0 0.00 0.00 0.00 87 1010.7
20260505065807 71 199 5.0 7.0 0.00 0.00 0.00 87 1010.7
20260505065304 71 240 4.0 6.0 0.00 0.00 0.00 87 1010.7
20260505064801 71 259 6.0 8.0 0.00 0.00 0.00 87 1010.7
20260505064258 71 224 5.0 9.0 0.00 0.00 0.00 87 1010.7
20260505063756 71 253 3.0 5.0 0.00 0.00 0.00 87 1010.7
20260505063252 71 201 2.0 3.0 0.00 0.00 0.00 87 1010.7
20260505062749 71 213 1.0 2.0 0.00 0.00 0.00 87 1010.7
20260505062246 71 198 3.0 3.0 0.00 0.00 0.00 87 1011.0
20260505061743 71 164 3.0 5.0 0.00 0.00 0.00 86 1010.7
20260505061241 71 194 7.0 9.0 0.00 0.00 0.00 86 1011.0
20260505060738 71 160 3.0 5.0 0.00 0.00 0.00 86 1011.0
20260505060235 71 240 7.0 9.0 0.00 0.00 0.00 86 1011.0
20260505055730 71 151 3.0 5.0 0.00 0.00 0.00 86 1011.0
20260505055227 71 190 3.0 5.0 0.00 0.00 0.00 86 1011.0
20260505054724 71 189 3.0 3.0 0.00 0.00 0.00 86 1011.3
20260505054222 71 153 2.0 3.0 0.00 0.00 0.00 85 1011.3
20260505053720 71 157 6.0 8.0 0.00 0.00 0.00 85 1011.0
20260505053216 71 177 4.0 5.0 0.00 0.00 0.00 85 1011.0
20260505052714 71 223 5.0 7.0 0.00 0.00 0.00 85 1011.0
20260505052210 71 131 4.0 6.0 0.00 0.00 0.00 85 1011.0
20260505051708 71 154 7.0 9.0 0.00 0.00 0.00 85 1011.0
20260505051206 71 228 5.0 7.0 0.00 0.00 0.00 85 1010.7
20260505050703 71 222 2.0 2.0 0.00 0.00 0.00 85 1011.0
20260505050201 71 206 3.0 5.0 0.00 0.00 0.00 85 1011.0
20260505041631 72 241 3.0 3.0 0.00 0.00 0.00 83 1011.0
20260505041128 72 214 5.0 6.0 0.00 0.00 0.00 83 1011.0
20260505040625 72 117 4.0 6.0 0.00 0.00 0.00 83 1010.7
20260505040122 72 195 4.0 5.0 0.00 0.00 0.00 83 1011.3
20260505035619 73 186 1.0 2.0 0.00 0.00 0.00 82 1011.0
20260505035115 73 243 2.0 3.0 0.00 0.00 0.00 82 1010.7
20260505034612 73 178 3.0 5.0 0.00 0.00 0.00 82 1010.7
20260505034109 73 222 2.0 3.0 0.00 0.00 0.00 81 1010.7
20260505033605 73 204 2.0 5.0 0.00 0.00 0.00 80 1011.0
20260505033104 74 188 4.0 5.0 0.00 0.00 0.00 80 1010.7
20260505032601 74 180 4.0 5.0 0.00 0.00 0.00 79 1010.7
20260505032057 74 184 1.0 2.0 0.00 0.00 0.00 79 1011.0
20260505031555 74 193 2.0 3.0 0.00 0.00 0.00 79 1010.7
20260505031051 74 157 1.0 2.0 0.00 0.00 0.00 79 1010.7
20260505030548 74 189 2.0 3.0 0.00 0.00 0.00 78 1010.7
20260505030044 75 232 1.0 2.0 0.00 0.00 0.00 78 1011.3
20260505025540 75 202 3.0 3.0 0.00 0.00 0.00 77 1010.7
20260505025039 75 209 5.0 6.0 0.00 0.00 0.00 77 1011.0
20260505024536 75 192 5.0 6.0 0.00 0.00 0.00 77 1011.0